| time (UTC) | temp C | wind direction | speed KPH | gust KPH | rain 1hr cm | rain 24hr cm | rain mn cm | humidity % | barometer mb |
| 20260507160505 | 12 | 90 | 1.6 | 9.7 | 0.00 | 0.13 | 0.10 | 87 | 1012.3 |
| 20260507160005 | 12 | 54 | 3.2 | 9.7 | 0.00 | 0.13 | 0.10 | 86 | 1012.3 |
| 20260507155505 | 12 | 62 | 3.2 | 9.7 | 0.00 | 0.13 | 0.10 | 86 | 1012.2 |
| 20260507155005 | 12 | 44 | 1.6 | 9.7 | 0.00 | 0.13 | 0.10 | 85 | 1012.3 |
| 20260507154504 | 13 | 42 | 4.8 | 12.9 | 0.00 | 0.13 | 0.10 | 84 | 1012.1 |
| 20260507154005 | 13 | 41 | 3.2 | 12.9 | 0.00 | 0.13 | 0.10 | 83 | 1012.3 |
| 20260507153504 | 13 | 60 | 4.8 | 11.3 | 0.00 | 0.13 | 0.10 | 83 | 1012.5 |
| 20260507153005 | 13 | 56 | 3.2 | 14.5 | 0.00 | 0.13 | 0.10 | 83 | 1012.2 |
| 20260507152505 | 13 | 9 | 3.2 | 14.5 | 0.00 | 0.13 | 0.10 | 82 | 1012.1 |
| 20260507152005 | 13 | 35 | 8.0 | 14.5 | 0.00 | 0.13 | 0.10 | 82 | 1012.0 |
| 20260507151505 | 13 | 14 | 3.2 | 11.3 | 0.00 | 0.15 | 0.10 | 82 | 1012.1 |
| 20260507151005 | 13 | 27 | 4.8 | 11.3 | 0.00 | 0.15 | 0.10 | 81 | 1012.0 |
| 20260507150505 | 13 | 17 | 3.2 | 12.9 | 0.00 | 0.15 | 0.10 | 81 | 1012.2 |
| 20260507150005 | 13 | 58 | 4.8 | 12.9 | 0.00 | 0.15 | 0.10 | 81 | 1012.3 |
| 20260507145505 | 13 | 38 | 6.4 | 12.9 | 0.00 | 0.15 | 0.10 | 81 | 1012.4 |
| 20260507145004 | 13 | 48 | 3.2 | 24.1 | 0.00 | 0.15 | 0.10 | 81 | 1012.2 |
| 20260507144504 | 13 | 26 | 4.8 | 24.1 | 0.00 | 0.15 | 0.10 | 81 | 1012.0 |
| 20260507144005 | 13 | 51 | 4.8 | 24.1 | 0.00 | 0.15 | 0.10 | 81 | 1011.8 |
| 20260507143505 | 13 | 46 | 3.2 | 19.3 | 0.00 | 0.25 | 0.10 | 81 | 1011.8 |
| 20260507143004 | 13 | 31 | 3.2 | 16.1 | 0.00 | 0.30 | 0.10 | 82 | 1012.0 |
| 20260507142505 | 13 | 21 | 8.0 | 16.1 | 0.00 | 0.36 | 0.10 | 82 | 1012.1 |
| 20260507142005 | 13 | 13 | 1.6 | 12.9 | 0.00 | 0.38 | 0.10 | 82 | 1012.2 |
| 20260507141504 | 13 | 75 | 4.8 | 12.9 | 0.00 | 0.43 | 0.10 | 82 | 1012.1 |
| 20260507141006 | 13 | 96 | 3.2 | 12.9 | 0.00 | 0.46 | 0.10 | 82 | 1012.1 |
| 20260507140504 | 13 | 37 | 6.4 | 12.9 | 0.00 | 0.48 | 0.10 | 83 | 1012.3 |
| 20260507140006 | 13 | 355 | 4.8 | 12.9 | 0.00 | 0.48 | 0.10 | 83 | 1012.3 |
| 20260507135504 | 13 | 1 | 4.8 | 19.3 | 0.00 | 0.48 | 0.10 | 82 | 1012.3 |
| 20260507135004 | 13 | 22 | 8.0 | 19.3 | 0.00 | 0.51 | 0.10 | 82 | 1012.3 |
| 20260507134506 | 13 | 88 | 4.8 | 19.3 | 0.00 | 0.51 | 0.10 | 83 | 1012.4 |
| 20260507134004 | 13 | 52 | 4.8 | 19.3 | 0.00 | 0.51 | 0.10 | 83 | 1012.2 |
| 20260507133505 | 13 | 351 | 1.6 | 12.9 | 0.00 | 0.51 | 0.10 | 84 | 1012.0 |
| 20260507133004 | 13 | 297 | 4.8 | 16.1 | 0.00 | 0.51 | 0.10 | 85 | 1012.0 |
| 20260507132505 | 13 | 40 | 4.8 | 16.1 | 0.00 | 0.51 | 0.10 | 86 | 1011.9 |
| 20260507132004 | 13 | 48 | 3.2 | 12.9 | 0.00 | 0.51 | 0.10 | 86 | 1011.8 |
| 20260507131505 | 13 | 27 | 3.2 | 9.7 | 0.00 | 0.51 | 0.10 | 87 | 1012.1 |
| 20260507131004 | 13 | 53 | 4.8 | 12.9 | 0.00 | 0.51 | 0.10 | 87 | 1012.1 |
| 20260507130504 | 13 | 39 | 3.2 | 14.5 | 0.00 | 0.51 | 0.10 | 88 | 1012.0 |
| 20260507130005 | 13 | 56 | 4.8 | 14.5 | 0.00 | 0.51 | 0.10 | 88 | 1011.8 |
| 20260507125504 | 13 | 27 | 4.8 | 12.9 | 0.00 | 0.51 | 0.10 | 89 | 1011.8 |
| 20260507125004 | 13 | 33 | 3.2 | 9.7 | 0.00 | 0.51 | 0.10 | 90 | 1011.9 |
| 20260507124504 | 13 | 351 | 4.8 | 9.7 | 0.00 | 0.51 | 0.10 | 90 | 1011.8 |
| 20260507124004 | 13 | 17 | 4.8 | 11.3 | 0.00 | 0.51 | 0.10 | 89 | 1011.8 |
| 20260507123504 | 13 | 345 | 4.8 | 12.9 | 0.00 | 0.51 | 0.10 | 89 | 1011.7 |
| 20260507123005 | 13 | 349 | 3.2 | 12.9 | 0.00 | 0.51 | 0.10 | 89 | 1011.9 |
| 20260507122504 | 13 | 7 | 3.2 | 11.3 | 0.00 | 0.51 | 0.10 | 89 | 1011.9 |
| 20260507122005 | 13 | 5 | 4.8 | 11.3 | 0.00 | 0.51 | 0.10 | 89 | 1011.9 |
| 20260507121504 | 13 | 19 | 6.4 | 12.9 | 0.00 | 0.51 | 0.10 | 89 | 1011.6 |
| 20260507121005 | 13 | 22 | 3.2 | 12.9 | 0.00 | 0.51 | 0.10 | 89 | 1011.6 |
| 20260507120505 | 13 | 8 | 4.8 | 14.5 | 0.00 | 0.51 | 0.10 | 89 | 1011.5 |
| 20260507120006 | 13 | 50 | 4.8 | 14.5 | 0.00 | 0.51 | 0.10 | 88 | 1011.6 |
| 20260507115505 | 13 | 111 | 1.6 | 14.5 | 0.00 | 0.51 | 0.10 | 88 | 1011.7 |
| 20260507115004 | 13 | 118 | 4.8 | 14.5 | 0.00 | 0.51 | 0.10 | 88 | 1011.8 |
| 20260507114505 | 13 | 45 | 3.2 | 14.5 | 0.00 | 0.51 | 0.10 | 88 | 1011.8 |
| 20260507114005 | 13 | 14 | 4.8 | 12.9 | 0.00 | 0.51 | 0.10 | 89 | 1011.8 |
| 20260507113505 | 13 | 5 | 4.8 | 12.9 | 0.00 | 0.51 | 0.10 | 88 | 1011.8 |
| 20260507113005 | 13 | 37 | 3.2 | 12.9 | 0.00 | 0.51 | 0.10 | 89 | 1011.7 |
| 20260507112504 | 13 | 18 | 3.2 | 12.9 | 0.00 | 0.51 | 0.10 | 89 | 1011.5 |
| 20260507112004 | 13 | 41 | 3.2 | 11.3 | 0.00 | 0.51 | 0.10 | 89 | 1011.4 |
| 20260507111506 | 12 | 84 | 4.8 | 11.3 | 0.00 | 0.51 | 0.10 | 90 | 1011.3 |
| 20260507111005 | 12 | 30 | 3.2 | 8.0 | 0.00 | 0.51 | 0.10 | 90 | 1011.1 |
| 20260507110504 | 12 | 37 | 3.2 | 8.0 | 0.00 | 0.51 | 0.10 | 91 | 1011.4 |
| 20260507110004 | 12 | 104 | 3.2 | 8.0 | 0.00 | 0.51 | 0.10 | 91 | 1011.5 |
| 20260507105505 | 12 | 26 | 1.6 | 8.0 | 0.00 | 0.51 | 0.10 | 91 | 1011.3 |
| 20260507105005 | 12 | 35 | 3.2 | 8.0 | 0.00 | 0.51 | 0.10 | 91 | 1011.2 |
| 20260507104504 | 12 | 37 | 3.2 | 8.0 | 0.00 | 0.51 | 0.10 | 91 | 1011.1 |
| 20260507104005 | 12 | 32 | 0.0 | 8.0 | 0.00 | 0.51 | 0.10 | 92 | 1011.0 |
| 20260507103504 | 12 | 5 | 1.6 | 8.0 | 0.00 | 0.51 | 0.10 | 92 | 1011.0 |
| 20260507103006 | 12 | 28 | 3.2 | 8.0 | 0.00 | 0.51 | 0.10 | 92 | 1010.8 |
| 20260507102504 | 13 | 353 | 3.2 | 11.3 | 0.00 | 0.51 | 0.10 | 92 | 1010.8 |
| 20260507102006 | 13 | 348 | 4.8 | 11.3 | 0.08 | 0.51 | 0.10 | 92 | 1010.6 |
| 20260507101504 | 13 | 321 | 3.2 | 12.9 | 0.10 | 0.51 | 0.10 | 92 | 1010.4 |
| 20260507101004 | 13 | 333 | 3.2 | 12.9 | 0.10 | 0.51 | 0.10 | 92 | 1010.5 |
| 20260507100505 | 13 | 51 | 4.8 | 11.3 | 0.10 | 0.51 | 0.10 | 92 | 1010.8 |
| 20260507100005 | 13 | 6 | 4.8 | 14.5 | 0.10 | 0.51 | 0.10 | 92 | 1011.0 |
| 20260507095504 | 13 | 4 | 3.2 | 14.5 | 0.10 | 0.51 | 0.10 | 92 | 1011.1 |
| 20260507095006 | 13 | 21 | 4.8 | 9.7 | 0.10 | 0.51 | 0.10 | 92 | 1011.1 |
| 20260507094505 | 13 | 47 | 3.2 | 8.0 | 0.10 | 0.51 | 0.10 | 92 | 1010.9 |
| 20260507094005 | 13 | 36 | 3.2 | 11.3 | 0.10 | 0.51 | 0.10 | 92 | 1010.9 |
| 20260507093504 | 13 | 9 | 3.2 | 12.9 | 0.10 | 0.51 | 0.10 | 92 | 1011.0 |
| 20260507093005 | 13 | 5 | 4.8 | 12.9 | 0.10 | 0.51 | 0.10 | 92 | 1011.2 |
| 20260507092504 | 13 | 51 | 3.2 | 12.9 | 0.10 | 0.51 | 0.10 | 92 | 1011.1 |
| 20260507092004 | 13 | 44 | 6.4 | 19.3 | 0.03 | 0.43 | 0.03 | 92 | 1010.9 |
| 20260507091505 | 14 | 9 | 3.2 | 19.3 | 0.00 | 0.41 | 0.00 | 91 | 1010.9 |
| 20260507091004 | 14 | 76 | 3.2 | 16.1 | 0.00 | 0.41 | 0.00 | 91 | 1010.7 |
| 20260507090503 | 14 | 13 | 4.8 | 11.3 | 0.00 | 0.41 | 0.00 | 91 | 1010.7 |
| 20260507090005 | 14 | 55 | 3.2 | 19.3 | 0.00 | 0.41 | 0.00 | 91 | 1010.7 |
| 20260507085504 | 15 | 9 | 6.4 | 19.3 | 0.00 | 0.41 | 0.00 | 91 | 1010.7 |
| 20260507085004 | 15 | 5 | 3.2 | 14.5 | 0.00 | 0.41 | 0.00 | 91 | 1010.7 |
| 20260507084505 | 15 | 1 | 6.4 | 19.3 | 0.00 | 0.41 | 0.00 | 91 | 1010.6 |
| 20260507084004 | 15 | 32 | 4.8 | 20.9 | 0.00 | 0.41 | 0.00 | 90 | 1010.5 |
| 20260507083504 | 15 | 352 | 9.7 | 25.7 | 0.00 | 0.41 | 0.00 | 89 | 1010.5 |
| 20260507083005 | 16 | 9 | 8.0 | 25.7 | 0.00 | 0.41 | 0.00 | 89 | 1010.4 |
| 20260507082503 | 16 | 22 | 8.0 | 22.5 | 0.00 | 0.41 | 0.00 | 88 | 1010.1 |
| 20260507082004 | 17 | 31 | 4.8 | 19.3 | 0.00 | 0.41 | 0.00 | 88 | 1010.2 |
| 20260507081504 | 18 | 36 | 8.0 | 19.3 | 0.00 | 0.41 | 0.00 | 90 | 1010.3 |
| 20260507081004 | 18 | 8 | 9.7 | 16.1 | 0.00 | 0.41 | 0.00 | 91 | 1010.2 |
| 20260507080504 | 19 | 35 | 4.8 | 9.7 | 0.00 | 0.41 | 0.00 | 92 | 1010.0 |
| 20260507080004 | 19 | 4 | 3.2 | 9.7 | 0.00 | 0.41 | 0.00 | 92 | 1009.7 |
| 20260507075504 | 19 | 0 | 3.2 | 9.7 | 0.00 | 0.41 | 0.00 | 91 | 1009.5 |
| 20260507075004 | 19 | 23 | 4.8 | 8.0 | 0.00 | 0.41 | 0.00 | 91 | 1009.1 |
| 20260507074505 | 19 | 66 | 3.2 | 4.8 | 0.00 | 0.41 | 0.00 | 91 | 1009.1 |
| 20260507074004 | 19 | 331 | 3.2 | 4.8 | 0.00 | 0.41 | 0.00 | 91 | 1009.2 |
| 20260507073503 | 19 | 331 | 0.0 | 3.2 | 0.00 | 0.41 | 0.00 | 91 | 1009.5 |
| 20260507073004 | 19 | 331 | 0.0 | 4.8 | 0.00 | 0.41 | 0.00 | 90 | 1009.6 |
| 20260507072504 | 19 | 331 | 0.0 | 4.8 | 0.00 | 0.41 | 0.00 | 90 | 1009.3 |
| 20260507072004 | 19 | 331 | 1.6 | 4.8 | 0.00 | 0.41 | 0.00 | 90 | 1009.5 |
| 20260507071504 | 20 | 328 | 0.0 | 4.8 | 0.00 | 0.41 | 0.00 | 89 | 1009.5 |
| 20260507071003 | 20 | 328 | 0.0 | 3.2 | 0.00 | 0.41 | 0.00 | 89 | 1009.6 |
| 20260507070504 | 20 | 327 | 0.0 | 4.8 | 0.00 | 0.41 | 0.00 | 89 | 1009.4 |
| 20260507070009 | 20 | 328 | 1.6 | 4.8 | 0.00 | 0.41 | 0.00 | 89 | 1009.4 |
| 20260507065503 | 20 | 223 | 0.0 | 4.8 | 0.00 | 0.41 | 0.00 | 88 | 1009.2 |
| 20260507065004 | 20 | 220 | 3.2 | 8.0 | 0.00 | 0.41 | 0.00 | 88 | 1008.9 |
| 20260507064505 | 20 | 201 | 3.2 | 8.0 | 0.00 | 0.41 | 0.00 | 87 | 1008.8 |
| 20260507064004 | 20 | 209 | 1.6 | 4.8 | 0.00 | 0.41 | 0.00 | 87 | 1009.0 |
| 20260507063503 | 20 | 209 | 0.0 | 9.7 | 0.00 | 0.41 | 0.00 | 87 | 1009.0 |
| 20260507063005 | 20 | 210 | 1.6 | 9.7 | 0.00 | 0.41 | 0.00 | 86 | 1008.7 |
| 20260507062503 | 20 | 218 | 4.8 | 8.0 | 0.00 | 0.41 | 0.00 | 86 | 1008.7 |
| 20260507062004 | 20 | 217 | 3.2 | 8.0 | 0.00 | 0.41 | 0.00 | 86 | 1008.7 |
| 20260507061504 | 20 | 234 | 4.8 | 8.0 | 0.00 | 0.41 | 0.00 | 86 | 1008.5 |
| 20260507061004 | 20 | 220 | 3.2 | 4.8 | 0.00 | 0.41 | 0.00 | 86 | 1008.5 |
| 20260507060504 | 20 | 226 | 3.2 | 4.8 | 0.00 | 0.41 | 0.00 | 86 | 1008.5 |
| 20260507060004 | 20 | 231 | 1.6 | 8.0 | 0.00 | 0.41 | 0.00 | 86 | 1008.5 |
| 20260507055506 | 20 | 242 | 4.8 | 8.0 | 0.00 | 0.41 | 0.00 | 86 | 1008.6 |
| 20260507055005 | 20 | 219 | 3.2 | 8.0 | 0.00 | 0.41 | 0.00 | 86 | 1008.6 |
| 20260507054503 | 20 | 233 | 3.2 | 4.8 | 0.00 | 0.41 | 0.00 | 86 | 1008.8 |
| 20260507054004 | 20 | 230 | 3.2 | 4.8 | 0.00 | 0.41 | 0.00 | 86 | 1008.6 |
| 20260507053504 | 20 | 228 | 1.6 | 8.0 | 0.00 | 0.41 | 0.00 | 86 | 1008.6 |
| 20260507053005 | 20 | 228 | 1.6 | 8.0 | 0.00 | 0.41 | 0.00 | 86 | 1008.7 |
| 20260507052504 | 20 | 230 | 3.2 | 8.0 | 0.00 | 0.41 | 0.00 | 85 | 1008.7 |
| 20260507052004 | 20 | 218 | 3.2 | 11.3 | 0.00 | 0.41 | 0.00 | 86 | 1008.8 |
| 20260507051504 | 20 | 216 | 3.2 | 11.3 | 0.00 | 0.41 | 0.00 | 86 | 1009.1 |
| 20260507051004 | 20 | 229 | 3.2 | 12.9 | 0.00 | 0.41 | 0.00 | 86 | 1009.2 |
| 20260507050504 | 20 | 219 | 3.2 | 12.9 | 0.00 | 0.41 | 0.00 | 86 | 1009.5 |
| 20260507050003 | 20 | 220 | 4.8 | 12.9 | 0.00 | 0.41 | 0.00 | 86 | 1009.6 |
| 20260507045503 | 20 | 228 | 4.8 | 11.3 | 0.00 | 0.41 | 0.00 | 86 | 1009.8 |
| 20260507045003 | 20 | 229 | 3.2 | 8.0 | 0.00 | 0.41 | 0.00 | 86 | 1009.9 |
| 20260507044504 | 20 | 223 | 3.2 | 9.7 | 0.00 | 0.41 | 0.00 | 86 | 1009.9 |
| 20260507044006 | 20 | 218 | 4.8 | 9.7 | 0.00 | 0.41 | 0.00 | 86 | 1009.9 |
| 20260507043506 | 20 | 207 | 1.6 | 9.7 | 0.00 | 0.41 | 0.00 | 86 | 1009.9 |
| 20260507043006 | 20 | 219 | 4.8 | 11.3 | 0.00 | 0.41 | 0.00 | 86 | 1010.1 |
| 20260507042506 | 20 | 231 | 4.8 | 11.3 | 0.00 | 0.41 | 0.00 | 86 | 1010.2 |
| 20260507042006 | 20 | 226 | 4.8 | 9.7 | 0.00 | 0.41 | 0.00 | 86 | 1010.2 |
| 20260507041506 | 20 | 224 | 3.2 | 8.0 | 0.00 | 0.41 | 0.00 | 86 | 1010.0 |
| 20260507041006 | 20 | 213 | 4.8 | 8.0 | 0.00 | 0.41 | 0.00 | 86 | 1009.7 |
| 20260507040507 | 20 | 212 | 4.8 | 9.7 | 0.00 | 0.41 | 0.00 | 86 | 1009.5 |
| 20260507040006 | 20 | 211 | 4.8 | 9.7 | 0.00 | 0.41 | 0.00 | 86 | 1009.7 |
| 20260507035506 | 20 | 229 | 4.8 | 8.0 | 0.00 | 0.41 | 0.41 | 86 | 1009.8 |
| 20260507035006 | 20 | 230 | 3.2 | 4.8 | 0.00 | 0.41 | 0.41 | 86 | 1009.9 |
| 20260507034506 | 20 | 201 | 3.2 | 8.0 | 0.00 | 0.41 | 0.41 | 86 | 1010.1 |
| 20260507034006 | 20 | 212 | 4.8 | 8.0 | 0.00 | 0.41 | 0.41 | 86 | 1010.0 |
| 20260507033506 | 20 | 223 | 4.8 | 8.0 | 0.00 | 0.41 | 0.41 | 86 | 1010.0 |
| 20260507033006 | 20 | 199 | 3.2 | 11.3 | 0.00 | 0.41 | 0.41 | 86 | 1010.0 |
| 20260507032505 | 20 | 220 | 8.0 | 11.3 | 0.00 | 0.41 | 0.41 | 86 | 1009.8 |
| 20260507032006 | 20 | 220 | 3.2 | 9.7 | 0.00 | 0.41 | 0.41 | 86 | 1009.6 |
| 20260507031507 | 20 | 218 | 3.2 | 9.7 | 0.00 | 0.41 | 0.41 | 87 | 1009.5 |
| 20260507031007 | 20 | 220 | 3.2 | 8.0 | 0.00 | 0.41 | 0.41 | 87 | 1009.5 |
| 20260507030506 | 20 | 217 | 3.2 | 8.0 | 0.00 | 0.41 | 0.41 | 87 | 1009.4 |
| 20260507030006 | 20 | 220 | 3.2 | 8.0 | 0.00 | 0.41 | 0.41 | 87 | 1009.4 |
| 20260507025506 | 20 | 221 | 3.2 | 8.0 | 0.00 | 0.41 | 0.41 | 87 | 1009.4 |
| 20260507025006 | 20 | 220 | 3.2 | 8.0 | 0.00 | 0.41 | 0.41 | 86 | 1009.3 |
| 20260507024507 | 20 | 226 | 1.6 | 8.0 | 0.00 | 0.41 | 0.41 | 86 | 1009.2 |
| 20260507024006 | 20 | 213 | 1.6 | 11.3 | 0.00 | 0.41 | 0.41 | 86 | 1009.2 |
| 20260507023507 | 20 | 224 | 4.8 | 11.3 | 0.00 | 0.41 | 0.41 | 86 | 1009.5 |
| 20260507023006 | 20 | 226 | 1.6 | 9.7 | 0.00 | 0.41 | 0.41 | 86 | 1009.6 |
| 20260507022505 | 20 | 227 | 1.6 | 9.7 | 0.00 | 0.41 | 0.41 | 86 | 1009.6 |
| 20260507022006 | 20 | 237 | 4.8 | 12.9 | 0.00 | 0.41 | 0.41 | 86 | 1009.7 |
| 20260507021506 | 20 | 222 | 3.2 | 12.9 | 0.00 | 0.41 | 0.41 | 86 | 1009.7 |
| 20260507021006 | 20 | 220 | 4.8 | 12.9 | 0.00 | 0.41 | 0.41 | 86 | 1009.8 |
| 20260507020506 | 20 | 231 | 3.2 | 8.0 | 0.00 | 0.41 | 0.41 | 86 | 1009.9 |
| 20260507020008 | 20 | 232 | 3.2 | 4.8 | 0.00 | 0.41 | 0.41 | 86 | 1009.9 |
| 20260507015507 | 20 | 214 | 3.2 | 4.8 | 0.00 | 0.41 | 0.41 | 86 | 1009.9 |
| 20260507015006 | 20 | 214 | 1.6 | 4.8 | 0.00 | 0.41 | 0.41 | 86 | 1009.9 |
| 20260507014507 | 20 | 213 | 1.6 | 8.0 | 0.00 | 0.41 | 0.41 | 86 | 1010.0 |
| 20260507014006 | 20 | 238 | 3.2 | 8.0 | 0.00 | 0.41 | 0.41 | 86 | 1009.9 |
| 20260507013507 | 20 | 218 | 1.6 | 4.8 | 0.00 | 0.41 | 0.41 | 86 | 1010.0 |
| 20260507013006 | 20 | 219 | 3.2 | 4.8 | 0.00 | 0.41 | 0.41 | 86 | 1010.0 |
| 20260507012505 | 20 | 221 | 3.2 | 4.8 | 0.00 | 0.41 | 0.41 | 86 | 1009.9 |
| 20260507012005 | 20 | 221 | 3.2 | 4.8 | 0.00 | 0.41 | 0.41 | 86 | 1009.9 |
| 20260507011506 | 20 | 215 | 0.0 | 4.8 | 0.00 | 0.41 | 0.41 | 86 | 1009.9 |
| 20260507011006 | 20 | 221 | 0.0 | 4.8 | 0.00 | 0.41 | 0.41 | 85 | 1009.9 |
| 20260507010506 | 20 | 220 | 1.6 | 4.8 | 0.00 | 0.41 | 0.41 | 85 | 1009.8 |
| 20260507010006 | 20 | 222 | 3.2 | 4.8 | 0.00 | 0.41 | 0.41 | 85 | 1009.7 |
| 20260507005505 | 20 | 222 | 3.2 | 4.8 | 0.00 | 0.41 | 0.41 | 84 | 1009.5 |
| 20260507005006 | 20 | 222 | 1.6 | 4.8 | 0.00 | 0.41 | 0.41 | 84 | 1009.5 |
| 20260507004505 | 20 | 222 | 3.2 | 4.8 | 0.00 | 0.41 | 0.41 | 84 | 1009.8 |
| 20260507004007 | 20 | 213 | 3.2 | 4.8 | 0.00 | 0.41 | 0.41 | 84 | 1009.8 |
| 20260507003505 | 20 | 221 | 3.2 | 4.8 | 0.00 | 0.41 | 0.41 | 84 | 1010.0 |
| 20260507003005 | 20 | 207 | 4.8 | 4.8 | 0.00 | 0.41 | 0.41 | 83 | 1010.0 |
| 20260507002506 | 21 | 205 | 1.6 | 4.8 | 0.00 | 0.41 | 0.41 | 83 | 1009.9 |
| 20260507002006 | 21 | 213 | 3.2 | 8.0 | 0.00 | 0.41 | 0.41 | 83 | 1009.9 |
| 20260507001506 | 21 | 224 | 4.8 | 8.0 | 0.00 | 0.41 | 0.41 | 83 | 1009.9 |
| 20260507001006 | 21 | 230 | 3.2 | 9.7 | 0.00 | 0.41 | 0.41 | 82 | 1010.0 |
| 20260507000506 | 21 | 230 | 4.8 | 9.7 | 0.00 | 0.41 | 0.41 | 82 | 1010.0 |
| 20260507000006 | 21 | 230 | 4.8 | 9.7 | 0.00 | 0.41 | 0.41 | 82 | 1010.0 |
| 20260506235506 | 21 | 224 | 4.8 | 9.7 | 0.00 | 0.41 | 0.41 | 82 | 1009.9 |
| 20260506235006 | 21 | 220 | 4.8 | 9.7 | 0.00 | 0.41 | 0.41 | 81 | 1009.7 |
| 20260506234505 | 21 | 228 | 4.8 | 9.7 | 0.00 | 0.41 | 0.41 | 81 | 1009.7 |
| 20260506234006 | 21 | 227 | 4.8 | 9.7 | 0.00 | 0.41 | 0.41 | 81 | 1009.5 |
| 20260506233506 | 21 | 225 | 3.2 | 9.7 | 0.00 | 0.41 | 0.41 | 81 | 1009.5 |
| 20260506233006 | 21 | 208 | 4.8 | 9.7 | 0.00 | 0.41 | 0.41 | 80 | 1009.5 |
| 20260506232505 | 21 | 220 | 4.8 | 12.9 | 0.00 | 0.41 | 0.41 | 80 | 1009.5 |
| 20260506232007 | 21 | 223 | 4.8 | 12.9 | 0.00 | 0.41 | 0.41 | 80 | 1009.5 |
| 20260506231506 | 21 | 218 | 4.8 | 11.3 | 0.00 | 0.41 | 0.41 | 80 | 1009.5 |
| 20260506231006 | 21 | 224 | 4.8 | 11.3 | 0.00 | 0.41 | 0.41 | 79 | 1009.6 |
| 20260506230506 | 21 | 219 | 3.2 | 12.9 | 0.00 | 0.41 | 0.41 | 80 | 1009.4 |
| 20260506230006 | 21 | 219 | 8.0 | 12.9 | 0.00 | 0.41 | 0.41 | 79 | 1009.5 |
| 20260506225506 | 21 | 217 | 4.8 | 9.7 | 0.00 | 0.41 | 0.41 | 79 | 1009.5 |
| 20260506225006 | 21 | 204 | 4.8 | 8.0 | 0.00 | 0.41 | 0.41 | 79 | 1009.5 |
| 20260506224505 | 21 | 226 | 3.2 | 11.3 | 0.00 | 0.41 | 0.41 | 79 | 1009.6 |
| 20260506224006 | 21 | 224 | 4.8 | 11.3 | 0.00 | 0.41 | 0.41 | 79 | 1009.5 |
| 20260506223506 | 21 | 227 | 3.2 | 14.5 | 0.00 | 0.41 | 0.41 | 79 | 1009.6 |
| 20260506223006 | 21 | 214 | 8.0 | 14.5 | 0.00 | 0.41 | 0.41 | 78 | 1009.5 |
| 20260506222506 | 21 | 195 | 4.8 | 12.9 | 0.00 | 0.41 | 0.41 | 78 | 1009.6 |
| 20260506222005 | 21 | 223 | 4.8 | 16.1 | 0.00 | 0.41 | 0.41 | 78 | 1009.6 |
| 20260506221506 | 21 | 227 | 8.0 | 16.1 | 0.00 | 0.41 | 0.41 | 78 | 1009.6 |
| 20260506221005 | 21 | 220 | 8.0 | 16.1 | 0.00 | 0.41 | 0.41 | 78 | 1009.6 |
| 20260506220505 | 21 | 230 | 4.8 | 14.5 | 0.00 | 0.41 | 0.41 | 78 | 1009.5 |
| 20260506220006 | 21 | 221 | 8.0 | 14.5 | 0.00 | 0.41 | 0.41 | 78 | 1009.5 |
| 20260506215506 | 21 | 227 | 8.0 | 12.9 | 0.00 | 0.41 | 0.41 | 78 | 1009.5 |
| 20260506215006 | 21 | 197 | 4.8 | 14.5 | 0.00 | 0.41 | 0.41 | 78 | 1009.5 |
| 20260506214505 | 21 | 223 | 6.4 | 14.5 | 0.00 | 0.41 | 0.41 | 78 | 1009.5 |
| 20260506214005 | 21 | 219 | 8.0 | 14.5 | 0.00 | 0.41 | 0.41 | 78 | 1009.6 |
| 20260506213506 | 21 | 230 | 6.4 | 14.5 | 0.00 | 0.41 | 0.41 | 78 | 1009.6 |
| 20260506213006 | 21 | 213 | 6.4 | 16.1 | 0.00 | 0.41 | 0.41 | 78 | 1009.6 |
| 20260506212506 | 21 | 228 | 4.8 | 16.1 | 0.00 | 0.41 | 0.41 | 79 | 1009.6 |
| 20260506212006 | 21 | 221 | 4.8 | 19.3 | 0.00 | 0.41 | 0.41 | 79 | 1009.8 |
| 20260506211506 | 21 | 234 | 8.0 | 19.3 | 0.00 | 0.41 | 0.41 | 79 | 1009.8 |
| 20260506211006 | 21 | 219 | 3.2 | 19.3 | 0.00 | 0.41 | 0.41 | 80 | 1009.7 |
| 20260506210506 | 21 | 222 | 6.4 | 19.3 | 0.00 | 0.41 | 0.41 | 80 | 1009.6 |
| 20260506210006 | 21 | 222 | 6.4 | 14.5 | 0.00 | 0.41 | 0.41 | 81 | 1009.6 |
| 20260506205506 | 21 | 218 | 6.4 | 14.5 | 0.00 | 0.41 | 0.41 | 80 | 1009.7 |
| 20260506205006 | 21 | 238 | 3.2 | 12.9 | 0.00 | 0.41 | 0.41 | 82 | 1009.8 |
| 20260506204505 | 21 | 232 | 3.2 | 12.9 | 0.00 | 0.41 | 0.41 | 82 | 1009.8 |
| 20260506204006 | 21 | 222 | 3.2 | 12.9 | 0.00 | 0.41 | 0.41 | 83 | 1009.7 |
| 20260506203505 | 21 | 225 | 6.4 | 12.9 | 0.00 | 0.41 | 0.41 | 85 | 1009.6 |
| 20260506203006 | 20 | 218 | 3.2 | 4.8 | 0.00 | 0.41 | 0.41 | 85 | 1009.5 |
| 20260506202506 | 20 | 198 | 0.0 | 0.0 | 0.00 | 0.41 | 0.41 | 85 | 1009.6 |
| 20260506202007 | 20 | 198 | 0.0 | 4.8 | 0.00 | 0.41 | 0.41 | 85 | 1009.7 |
| 20260506201507 | 20 | 198 | 0.0 | 4.8 | 0.00 | 0.41 | 0.41 | 85 | 1009.7 |
| 20260506201007 | 20 | 233 | 3.2 | 4.8 | 0.00 | 0.41 | 0.41 | 85 | 1009.8 |
| 20260506200506 | 20 | 239 | 1.6 | 4.8 | 0.00 | 0.41 | 0.41 | 85 | 1009.9 |
| 20260506200006 | 20 | 197 | 1.6 | 8.0 | 0.03 | 0.41 | 0.41 | 85 | 1009.8 |
| 20260506195505 | 20 | 229 | 3.2 | 8.0 | 0.03 | 0.41 | 0.41 | 86 | 1009.7 |
| 20260506195005 | 20 | 207 | 3.2 | 8.0 | 0.03 | 0.41 | 0.41 | 86 | 1009.2 |
| 20260506194506 | 20 | 238 | 3.2 | 4.8 | 0.03 | 0.41 | 0.41 | 86 | 1009.3 |
| 20260506194006 | 19 | 221 | 3.2 | 11.3 | 0.03 | 0.41 | 0.41 | 87 | 1009.0 |
| 20260506193506 | 19 | 196 | 4.8 | 11.3 | 0.03 | 0.41 | 0.41 | 87 | 1009.1 |
| 20260506193006 | 19 | 226 | 6.4 | 11.3 | 0.03 | 0.41 | 0.41 | 87 | 1009.1 |
| 20260506192507 | 19 | 213 | 4.8 | 11.3 | 0.03 | 0.41 | 0.41 | 88 | 1009.3 |
| 20260506192006 | 18 | 223 | 4.8 | 11.3 | 0.03 | 0.41 | 0.41 | 88 | 1009.5 |
| 20260506191506 | 18 | 219 | 4.8 | 11.3 | 0.03 | 0.41 | 0.41 | 89 | 1009.7 |
| 20260506191006 | 18 | 223 | 4.8 | 9.7 | 0.03 | 0.41 | 0.41 | 89 | 1009.9 |
| 20260506190505 | 18 | 203 | 4.8 | 11.3 | 0.03 | 0.41 | 0.41 | 89 | 1010.0 |
| 20260506190007 | 18 | 221 | 8.0 | 12.9 | 0.00 | 0.38 | 0.38 | 90 | 1010.3 |
| 20260506185505 | 18 | 230 | 4.8 | 12.9 | 0.00 | 0.38 | 0.38 | 90 | 1010.4 |
| 20260506185006 | 18 | 227 | 3.2 | 12.9 | 0.00 | 0.38 | 0.38 | 90 | 1010.2 |
| 20260506184506 | 18 | 216 | 6.4 | 12.9 | 0.00 | 0.38 | 0.38 | 90 | 1010.2 |
| 20260506184006 | 18 | 229 | 6.4 | 19.3 | 0.00 | 0.38 | 0.38 | 90 | 1010.2 |
| 20260506183506 | 18 | 231 | 9.7 | 19.3 | 0.00 | 0.38 | 0.38 | 89 | 1010.4 |
| 20260506183006 | 18 | 231 | 6.4 | 12.9 | 0.00 | 0.38 | 0.38 | 89 | 1010.4 |
| 20260506182506 | 18 | 222 | 4.8 | 9.7 | 0.00 | 0.38 | 0.38 | 89 | 1010.4 |
| 20260506182006 | 18 | 220 | 4.8 | 12.9 | 0.00 | 0.38 | 0.38 | 89 | 1010.6 |
| 20260506181506 | 18 | 233 | 4.8 | 12.9 | 0.00 | 0.38 | 0.38 | 89 | 1010.8 |
| 20260506181005 | 18 | 225 | 6.4 | 16.1 | 0.00 | 0.38 | 0.38 | 89 | 1010.9 |
| 20260506180505 | 18 | 230 | 4.8 | 16.1 | 0.00 | 0.38 | 0.38 | 89 | 1011.0 |
| 20260506180006 | 18 | 234 | 9.7 | 16.1 | 0.00 | 0.38 | 0.38 | 88 | 1011.0 |
| 20260506175505 | 18 | 226 | 4.8 | 11.3 | 0.00 | 0.38 | 0.38 | 89 | 1011.0 |
| 20260506175005 | 18 | 238 | 8.0 | 14.5 | 0.00 | 0.38 | 0.38 | 89 | 1011.1 |
| 20260506174505 | 18 | 228 | 8.0 | 14.5 | 0.00 | 0.38 | 0.38 | 89 | 1011.1 |
| 20260506174006 | 18 | 235 | 4.8 | 14.5 | 0.00 | 0.38 | 0.38 | 89 | 1011.0 |
| 20260506173505 | 18 | 224 | 8.0 | 12.9 | 0.00 | 0.38 | 0.38 | 89 | 1011.0 |
| 20260506173006 | 18 | 224 | 6.4 | 11.3 | 0.00 | 0.38 | 0.38 | 90 | 1010.9 |
| 20260506172506 | 18 | 227 | 4.8 | 19.3 | 0.00 | 0.38 | 0.38 | 90 | 1011.0 |
| 20260506172006 | 18 | 232 | 4.8 | 19.3 | 0.00 | 0.38 | 0.38 | 90 | 1011.0 |
| 20260506171505 | 18 | 226 | 4.8 | 11.3 | 0.00 | 0.38 | 0.38 | 90 | 1011.0 |
| 20260506171005 | 17 | 223 | 4.8 | 11.3 | 0.00 | 0.38 | 0.38 | 90 | 1010.9 |
| 20260506170506 | 17 | 219 | 6.4 | 11.3 | 0.00 | 0.38 | 0.38 | 91 | 1011.0 |
| 20260506170007 | 17 | 217 | 3.2 | 9.7 | 0.00 | 0.38 | 0.38 | 90 | 1011.3 |
| 20260506165506 | 17 | 221 | 3.2 | 9.7 | 0.00 | 0.38 | 0.38 | 90 | 1011.6 |
| 20260506165005 | 17 | 218 | 4.8 | 12.9 | 0.00 | 0.38 | 0.38 | 91 | 1011.4 |
| 20260506164506 | 17 | 239 | 4.8 | 12.9 | 0.00 | 0.38 | 0.38 | 91 | 1011.4 |
| 20260506164006 | 17 | 219 | 6.4 | 16.1 | 0.00 | 0.38 | 0.38 | 91 | 1011.5 |
| 20260506163505 | 17 | 221 | 4.8 | 16.1 | 0.00 | 0.38 | 0.38 | 91 | 1011.4 |
| 20260506163005 | 17 | 208 | 4.8 | 14.5 | 0.00 | 0.38 | 0.38 | 91 | 1011.5 |
| 20260506162505 | 17 | 214 | 8.0 | 12.9 | 0.00 | 0.38 | 0.38 | 91 | 1011.5 |
| 20260506162006 | 17 | 210 | 4.8 | 11.3 | 0.00 | 0.38 | 0.38 | 92 | 1011.2 |
| 20260506161505 | 17 | 242 | 4.8 | 11.3 | 0.03 | 0.38 | 0.38 | 92 | 1011.2 |
| 20260506161005 | 17 | 222 | 4.8 | 12.9 | 0.03 | 0.38 | 0.38 | 92 | 1011.2 |